Time,TemperatureF,DewpointF,PressureIn,WindDirection,WindDirectionDegrees,WindSpeedMPH,WindSpeedGustMPH,Humidity,HourlyPrecipIn,Conditions,Clouds,dailyrainin,SoftwareType,DateUTC
2013-06-26 00:04:00,79.8,74.5,29.58,SW,227,0.0,0.0,84,0.00,CLR,CLR,0.00,WeatherDisplay:10.37,2013-06-26 05:04:00,
2013-06-26 00:09:00,79.6,74.7,29.58,SW,227,0.0,0.0,85,0.00,CLR,CLR,0.00,WeatherDisplay:10.37,2013-06-26 05:09:00,
2013-06-26 00:14:00,79.3,74.4,29.58,SW,227,0.0,0.0,85,0.00,CLR,CLR,0.00,WeatherDisplay:10.37,2013-06-26 05:14:00,
2013-06-26 00:19:00,79.0,74.5,29.58,SW,227,0.0,0.0,86,0.00,CLR,CLR,0.00,WeatherDisplay:10.37,2013-06-26 05:19:00,
2013-06-26 00:24:00,78.8,74.3,29.58,SW,227,0.0,0.0,86,0.00,CLR,CLR,0.00,WeatherDisplay:10.37,2013-06-26 05:24:00,
2013-06-26 00:29:00,78.5,74.3,29.58,SW,227,0.0,0.0,87,0.00,CLR,CLR,0.00,WeatherDisplay:10.37,2013-06-26 05:29:00,
2013-06-26 00:34:00,78.3,74.1,29.58,SW,227,0.0,0.0,87,0.00,CLR,CLR,0.00,WeatherDisplay:10.37,2013-06-26 05:34:00,
2013-06-26 13:35:00,93.7,65.0,29.78,North,360,9.0,9.0,39,0.00,CLR,CLR,0.01,WeatherDisplay:10.37,2013-06-26 18:35:00,
2013-06-26 13:40:00,93.8,65.8,29.78,NNE,14,2.3,2.3,40,0.00,CLR,CLR,0.01,WeatherDisplay:10.37,2013-06-26 18:40:00,
2013-06-26 13:45:00,94.2,65.4,29.77,North,355,2.0,2.0,39,0.00,CLR,CLR,0.01,WeatherDisplay:10.37,2013-06-26 18:45:00,
2013-06-26 13:50:00,94.5,65.0,29.77,NNE,29,1.2,1.2,38,0.00,CLR,CLR,0.01,WeatherDisplay:10.37,2013-06-26 18:50:00,
2013-06-26 13:55:00,94.8,66.0,29.77,North,5,1.2,1.2,39,0.00,CLR,CLR,0.01,WeatherDisplay:10.37,2013-06-26 18:55:00,
2013-06-26 14:00:00,95.0,66.9,29.77,NNE,17,1.2,1.2,40,0.00,CLR,CLR,0.01,WeatherDisplay:10.37,2013-06-26 19:00:00,
2013-06-26 14:05:00,95.3,66.4,29.77,NNE,30,1.2,1.2,39,0.00,CLR,CLR,0.01,WeatherDisplay:10.37,2013-06-26 19:05:00,
2013-06-26 14:10:00,95.5,66.6,29.77,NNE,28,2.0,2.0,39,0.00,CLR,CLR,0.01,WeatherDisplay:10.37,2013-06-26 19:10:00,
2013-06-26 14:15:00,95.7,66.8,29.77,North,355,0.0,0.0,39,0.00,CLR,CLR,0.01,WeatherDisplay:10.37,2013-06-26 19:15:00,
2013-06-26 14:20:00,95.9,65.4,29.77,ESE,121,0.0,0.0,37,0.00,CLR,CLR,0.01,WeatherDisplay:10.37,2013-06-26 19:20:00,
2013-06-26 14:25:00,95.7,66.0,29.77,NNE,17,1.2,1.2,38,0.00,CLR,CLR,0.01,WeatherDisplay:10.37,2013-06-26 19:25:00,
2013-06-26 14:30:00,95.3,65.7,29.77,NNW,346,1.2,1.2,38,0.00,CLR,CLR,0.01,WeatherDisplay:10.37,2013-06-26 19:30:00,
2013-06-26 14:35:00,94.7,64.4,29.77,WNW,296,1.2,0.0,37,0.00,CLR,CLR,0.01,WeatherDisplay:10.37,2013-06-26 19:35:00,
2013-06-26 14:40:00,94.7,67.3,29.77,NW,309,1.2,0.0,41,0.00,CLR,CLR,0.01,WeatherDisplay:10.37,2013-06-26 19:40:00,
2013-06-26 14:45:00,94.7,66.6,29.77,SW,235,1.2,0.0,40,0.00,CLR,CLR,0.01,WeatherDisplay:10.37,2013-06-26 19:45:00,
2013-06-26 14:50:00,95.1,67.7,29.77,NW,323,1.2,1.2,41,0.00,CLR,CLR,0.01,WeatherDisplay:10.37,2013-06-26 19:50:00,
2013-06-26 14:55:00,95.5,62.7,29.77,NNE,19,2.3,2.3,34,0.00,CLR,CLR,0.01,WeatherDisplay:10.37,2013-06-26 19:55:00,
2013-06-26 15:00:00,95.3,63.3,29.77,North,360,1.2,1.2,35,0.00,CLR,CLR,0.01,WeatherDisplay:10.37,2013-06-26 20:00:00,
2013-06-26 15:05:00,95.4,65.8,29.77,NE,34,0.0,0.0,38,0.00,CLR,CLR,0.01,WeatherDisplay:10.37,2013-06-26 20:05:00,
2013-06-26 15:10:00,95.6,63.6,29.77,NNE,29,0.0,0.0,35,0.00,CLR,CLR,0.01,WeatherDisplay:10.37,2013-06-26 20:10:00,
2013-06-26 15:15:00,95.6,63.6,29.77,NNE,24,1.2,1.2,35,0.00,CLR,CLR,0.01,WeatherDisplay:10.37,2013-06-26 20:15:00,
2013-06-26 15:20:00,95.6,63.6,29.76,North,5,1.2,1.2,35,0.00,CLR,CLR,0.01,WeatherDisplay:10.37,2013-06-26 20:20:00,
2013-06-26 15:26:00,95.6,64.4,29.77,North,5,1.2,0.0,36,0.00,CLR,CLR,0.01,WeatherDisplay:10.37,2013-06-26 20:26:00,
2013-06-26 15:31:00,95.6,64.4,29.76,North,9,1.0,0.0,36,0.00,CLR,CLR,0.01,WeatherDisplay:10.37,2013-06-26 20:31:00,
2013-06-26 15:36:00,95.4,66.5,29.76,North,5,1.2,1.2,39,0.00,CLR,CLR,0.01,WeatherDisplay:10.37,2013-06-26 20:36:00,
2013-06-26 15:42:00,95.3,63.3,29.76,North,355,0.0,0.0,35,0.00,CLR,CLR,0.01,WeatherDisplay:10.37,2013-06-26 20:42:00,
2013-06-26 15:47:00,95.7,64.5,29.76,NW,317,0.0,0.0,36,0.00,CLR,CLR,0.01,WeatherDisplay:10.37,2013-06-26 20:47:00,
2013-06-26 15:52:00,96.1,64.8,29.76,NNW,346,0.0,0.0,36,0.00,CLR,CLR,0.01,WeatherDisplay:10.37,2013-06-26 20:52:00,
2013-06-26 15:57:00,95.7,66.0,29.76,West,260,2.0,2.0,38,0.00,CLR,CLR,0.01,WeatherDisplay:10.37,2013-06-26 20:57:00,
2013-06-26 16:02:00,95.1,63.9,29.76,West,260,1.0,1.0,36,0.00,CLR,CLR,0.01,WeatherDisplay:10.37,2013-06-26 21:02:00,
2013-06-26 16:07:00,94.4,65.6,29.76,West,259,0.0,0.0,39,0.00,CLR,CLR,0.01,WeatherDisplay:10.37,2013-06-26 21:07:00,
2013-06-26 16:12:00,94.2,65.4,29.76,NNW,341,0.0,0.0,39,0.00,CLR,CLR,0.01,WeatherDisplay:10.37,2013-06-26 21:12:00,
2013-06-26 16:17:00,94.6,63.5,29.76,NNE,22,1.0,1.0,36,0.00,CLR,CLR,0.01,WeatherDisplay:10.37,2013-06-26 21:17:00,
2013-06-26 16:22:00,94.7,65.9,29.76,NNE,16,0.0,0.0,39,0.00,CLR,CLR,0.01,WeatherDisplay:10.37,2013-06-26 21:22:00,
2013-06-26 16:27:00,94.8,64.5,29.76,NNE,13,0.0,0.0,37,0.00,CLR,CLR,0.01,WeatherDisplay:10.37,2013-06-26 21:27:00,
2013-06-26 16:32:00,94.8,66.0,29.76,NNE,14,1.0,0.0,39,0.00,CLR,CLR,0.01,WeatherDisplay:10.37,2013-06-26 21:32:00,
2013-06-26 16:37:00,94.7,64.4,29.76,NNE,26,1.0,1.0,37,0.00,CLR,CLR,0.01,WeatherDisplay:10.37,2013-06-26 21:37:00,
2013-06-26 16:42:00,94.3,64.8,29.76,WSW,249,3.5,3.5,38,0.00,CLR,CLR,0.01,WeatherDisplay:10.37,2013-06-26 21:42:00,
2013-06-26 16:47:00,94.1,65.4,29.76,WNW,302,1.0,0.0,39,0.00,CLR,CLR,0.01,WeatherDisplay:10.37,2013-06-26 21:47:00,
2013-06-26 16:52:00,94.1,66.1,29.75,NW,326,0.0,0.0,40,0.00,CLR,CLR,0.01,WeatherDisplay:10.37,2013-06-26 21:52:00,
2013-06-26 16:57:00,93.9,64.4,29.75,WNW,292,0.0,0.0,38,0.00,CLR,CLR,0.01,WeatherDisplay:10.37,2013-06-26 21:57:00,
2013-06-26 17:02:00,93.7,65.7,29.75,WSW,252,0.0,0.0,40,0.00,CLR,CLR,0.01,WeatherDisplay:10.37,2013-06-26 22:02:00,
2013-06-26 17:07:00,93.4,64.7,29.75,WNW,292,1.0,1.0,39,0.00,CLR,CLR,0.01,WeatherDisplay:10.37,2013-06-26 22:07:00,
2013-06-26 17:13:00,93.2,65.3,29.75,WNW,291,0.0,0.0,40,0.00,CLR,CLR,0.01,WeatherDisplay:10.37,2013-06-26 22:13:00,
2013-06-26 17:17:00,93.1,64.5,29.75,NNW,336,1.2,1.2,39,0.00,CLR,CLR,0.01,WeatherDisplay:10.37,2013-06-26 22:17:00,
2013-06-26 17:23:00,92.9,64.3,29.75,North,11,1.2,1.2,39,0.00,CLR,CLR,0.01,WeatherDisplay:10.37,2013-06-26 22:23:00,
2013-06-26 17:28:00,92.7,64.8,29.75,NNE,16,0.0,0.0,40,0.00,CLR,CLR,0.01,WeatherDisplay:10.37,2013-06-26 22:28:00,
2013-06-26 17:33:00,92.6,64.8,29.75,NNE,16,0.0,0.0,40,0.00,CLR,CLR,0.01,WeatherDisplay:10.37,2013-06-26 22:33:00,
2013-06-26 17:38:00,92.6,66.8,29.75,North,355,1.2,1.2,43,0.00,CLR,CLR,0.01,WeatherDisplay:10.37,2013-06-26 22:38:00,
2013-06-26 17:43:00,92.4,66.0,29.75,WSW,252,2.3,2.3,42,0.00,CLR,CLR,0.01,WeatherDisplay:10.37,2013-06-26 22:43:00,
2013-06-26 17:48:00,92.0,64.9,29.75,NNE,24,1.2,1.2,41,0.00,CLR,CLR,0.01,WeatherDisplay:10.37,2013-06-26 22:48:00,
2013-06-26 17:53:00,91.9,65.5,29.75,NW,317,0.0,0.0,42,0.00,CLR,CLR,0.01,WeatherDisplay:10.37,2013-06-26 22:53:00,
2013-06-26 17:58:00,91.9,64.1,29.75,NW,325,1.2,1.2,40,0.00,CLR,CLR,0.01,WeatherDisplay:10.37,2013-06-26 22:58:00,
2013-06-26 18:03:00,91.7,63.2,29.75,NNE,23,1.2,1.2,39,0.00,CLR,CLR,0.01,WeatherDisplay:10.37,2013-06-26 23:03:00,
2013-06-26 18:08:00,91.5,63.1,29.75,North,5,1.0,1.0,39,0.00,CLR,CLR,0.01,WeatherDisplay:10.37,2013-06-26 23:08:00,
2013-06-26 18:13:00,91.2,63.5,29.76,North,5,0.0,0.0,40,0.00,CLR,CLR,0.01,WeatherDisplay:10.37,2013-06-26 23:13:00,
2013-06-26 18:19:00,91.0,63.3,29.76,North,5,0.0,0.0,40,0.00,CLR,CLR,0.01,WeatherDisplay:10.37,2013-06-26 23:19:00,
2013-06-26 18:24:00,90.9,63.9,29.76,North,5,1.2,0.0,41,0.00,CLR,CLR,0.01,WeatherDisplay:10.37,2013-06-26 23:24:00,
2013-06-26 18:29:00,90.8,62.4,29.76,North,355,1.2,1.2,39,0.00,CLR,CLR,0.01,WeatherDisplay:10.37,2013-06-26 23:29:00,
2013-06-26 18:34:00,90.8,63.1,29.76,North,355,0.0,0.0,40,0.00,CLR,CLR,0.01,WeatherDisplay:10.37,2013-06-26 23:34:00,
2013-06-26 18:39:00,90.9,64.6,29.76,North,350,0.0,0.0,42,0.00,CLR,CLR,0.01,WeatherDisplay:10.37,2013-06-26 23:39:00,
2013-06-26 18:44:00,90.9,62.5,29.76,NNE,17,0.0,0.0,39,0.00,CLR,CLR,0.01,WeatherDisplay:10.37,2013-06-26 23:44:00,
2013-06-26 18:49:00,90.9,63.2,29.76,NNE,17,0.0,0.0,40,0.00,CLR,CLR,0.01,WeatherDisplay:10.37,2013-06-26 23:49:00,
2013-06-26 18:54:00,91.0,64.0,29.76,NNE,15,0.0,0.0,41,0.00,CLR,CLR,0.01,WeatherDisplay:10.37,2013-06-26 23:54:00,
2013-06-26 18:59:00,90.9,63.9,29.76,NNE,15,0.0,0.0,41,0.00,CLR,CLR,0.01,WeatherDisplay:10.37,2013-06-26 23:59:00,
2013-06-26 19:04:00,90.9,64.6,29.76,NNE,15,0.0,0.0,42,0.00,CLR,CLR,0.01,WeatherDisplay:10.37,2013-06-27 00:04:00,
2013-06-26 19:09:00,90.7,63.8,29.76,NNE,15,0.0,0.0,41,0.00,CLR,CLR,0.01,WeatherDisplay:10.37,2013-06-27 00:09:00,
2013-06-26 19:14:00,90.4,62.8,29.76,NNE,15,0.0,0.0,40,0.00,CLR,CLR,0.01,WeatherDisplay:10.37,2013-06-27 00:14:00,
2013-06-26 19:19:00,90.2,64.0,29.76,NNE,15,0.0,0.0,42,0.00,CLR,CLR,0.01,WeatherDisplay:10.37,2013-06-27 00:19:00,
2013-06-26 19:24:00,90.0,63.8,29.77,NNE,15,0.0,0.0,42,0.00,CLR,CLR,0.01,WeatherDisplay:10.37,2013-06-27 00:24:00,
2013-06-26 19:29:00,89.8,65.0,29.77,NNE,15,0.0,0.0,44,0.00,CLR,CLR,0.01,WeatherDisplay:10.37,2013-06-27 00:29:00,
2013-06-26 19:34:00,89.4,64.0,29.77,NNE,15,0.0,0.0,43,0.00,CLR,CLR,0.01,WeatherDisplay:10.37,2013-06-27 00:34:00,
2013-06-26 19:39:00,89.1,65.0,29.77,NNE,15,0.0,0.0,45,0.00,CLR,CLR,0.01,WeatherDisplay:10.37,2013-06-27 00:39:00,
2013-06-26 19:44:00,88.8,64.7,29.77,NNE,15,0.0,0.0,45,0.00,CLR,CLR,0.01,WeatherDisplay:10.37,2013-06-27 00:44:00,
2013-06-26 19:49:00,88.6,64.5,29.77,NNE,15,0.0,0.0,45,0.00,CLR,CLR,0.01,WeatherDisplay:10.37,2013-06-27 00:49:00,
2013-06-26 19:54:00,88.4,63.7,29.77,NNE,15,0.0,0.0,44,0.00,CLR,CLR,0.01,WeatherDisplay:10.37,2013-06-27 00:54:00,
2013-06-26 19:59:00,88.1,63.4,29.77,NNE,15,0.0,0.0,44,0.00,CLR,CLR,0.01,WeatherDisplay:10.37,2013-06-27 00:59:00,
2013-06-26 20:04:00,87.9,63.9,29.77,NNE,15,0.0,0.0,45,0.00,CLR,CLR,0.01,WeatherDisplay:10.37,2013-06-27 01:04:00,
2013-06-26 20:10:00,87.5,64.8,29.77,NNE,15,0.0,0.0,47,0.00,CLR,CLR,0.01,WeatherDisplay:10.37,2013-06-27 01:10:00,
2013-06-26 20:15:00,87.2,65.1,29.77,NNE,15,0.0,0.0,48,0.00,CLR,CLR,0.01,WeatherDisplay:10.37,2013-06-27 01:15:00,
2013-06-26 20:20:00,86.8,64.2,29.77,NNE,15,0.0,0.0,47,0.00,CLR,CLR,0.01,WeatherDisplay:10.37,2013-06-27 01:20:00,
2013-06-26 20:25:00,86.5,64.5,29.77,NNE,15,0.0,0.0,48,0.00,CLR,CLR,0.01,WeatherDisplay:10.37,2013-06-27 01:25:00,
2013-06-26 20:30:00,86.3,64.9,29.76,NNE,15,0.0,0.0,49,0.00,CLR,CLR,0.01,WeatherDisplay:10.37,2013-06-27 01:30:00,
2013-06-26 20:35:00,86.0,64.6,29.76,NNE,15,0.0,0.0,49,0.00,CLR,CLR,0.01,WeatherDisplay:10.37,2013-06-27 01:35:00,
2013-06-26 20:40:00,85.6,64.2,29.76,NNE,15,0.0,0.0,49,0.00,CLR,CLR,0.01,WeatherDisplay:10.37,2013-06-27 01:40:00,
2013-06-26 20:45:00,85.2,65.0,29.76,NNE,15,0.0,0.0,51,0.00,CLR,CLR,0.01,WeatherDisplay:10.37,2013-06-27 01:45:00,
2013-06-26 20:50:00,84.8,65.8,29.76,NNE,15,0.0,0.0,53,0.00,CLR,CLR,0.01,WeatherDisplay:10.37,2013-06-27 01:50:00,
2013-06-26 20:55:00,84.4,65.4,29.76,NNE,15,0.0,0.0,53,0.00,CLR,CLR,0.01,WeatherDisplay:10.37,2013-06-27 01:55:00,
2013-06-26 21:00:00,84.0,65.6,29.76,NNE,15,0.0,0.0,54,0.00,CLR,CLR,0.01,WeatherDisplay:10.37,2013-06-27 02:00:00,
2013-06-26 21:05:00,83.6,65.7,29.76,NNE,15,0.0,0.0,55,0.00,CLR,CLR,0.01,WeatherDisplay:10.37,2013-06-27 02:05:00,
2013-06-26 21:10:00,83.1,65.8,29.76,NNE,15,0.0,0.0,56,0.00,CLR,CLR,0.01,WeatherDisplay:10.37,2013-06-27 02:10:00,
2013-06-26 21:15:00,82.7,65.9,29.76,NNE,15,0.0,0.0,57,0.00,CLR,CLR,0.01,WeatherDisplay:10.37,2013-06-27 02:15:00,
2013-06-26 21:20:00,82.3,66.0,29.76,NNE,15,0.0,0.0,58,0.00,CLR,CLR,0.01,WeatherDisplay:10.37,2013-06-27 02:20:00,
2013-06-26 21:25:00,81.9,66.2,29.76,NNE,15,0.0,0.0,59,0.00,CLR,CLR,0.01,WeatherDisplay:10.37,2013-06-27 02:25:00,
2013-06-26 21:30:00,81.6,65.9,29.76,NNE,32,0.0,0.0,59,0.00,CLR,CLR,0.01,WeatherDisplay:10.37,2013-06-27 02:30:00,
2013-06-26 21:35:00,81.4,65.2,29.77,NNE,32,0.0,0.0,58,0.00,CLR,CLR,0.01,WeatherDisplay:10.37,2013-06-27 02:35:00,
2013-06-26 21:40:00,81.2,65.5,29.77,NNE,32,0.0,0.0,59,0.00,CLR,CLR,0.01,WeatherDisplay:10.37,2013-06-27 02:40:00,
2013-06-26 21:45:00,81.1,65.9,29.77,NNE,32,0.0,0.0,60,0.00,CLR,CLR,0.01,WeatherDisplay:10.37,2013-06-27 02:45:00,
2013-06-26 21:50:00,80.9,66.2,29.77,NNE,32,0.0,0.0,61,0.00,CLR,CLR,0.01,WeatherDisplay:10.37,2013-06-27 02:50:00,
2013-06-26 21:55:00,80.7,66.0,29.77,NNE,32,0.0,0.0,61,0.00,CLR,CLR,0.01,WeatherDisplay:10.37,2013-06-27 02:55:00,
2013-06-26 22:00:00,80.4,66.2,29.77,NNE,32,0.0,0.0,62,0.00,CLR,CLR,0.01,WeatherDisplay:10.37,2013-06-27 03:00:00,
2013-06-26 22:05:00,80.3,65.6,29.78,NNE,32,0.0,0.0,61,0.00,CLR,CLR,0.01,WeatherDisplay:10.37,2013-06-27 03:05:00,
2013-06-26 22:10:00,80.2,66.5,29.78,NNE,32,0.0,0.0,63,0.00,CLR,CLR,0.01,WeatherDisplay:10.37,2013-06-27 03:10:00,
2013-06-26 22:15:00,80.0,66.3,29.78,NNE,32,0.0,0.0,63,0.00,CLR,CLR,0.01,WeatherDisplay:10.37,2013-06-27 03:15:00,
2013-06-26 22:20:00,79.8,66.5,29.78,NNE,32,0.0,0.0,64,0.00,CLR,CLR,0.01,WeatherDisplay:10.37,2013-06-27 03:20:00,
2013-06-26 22:25:00,79.6,65.4,29.78,NNE,32,0.0,0.0,62,0.00,CLR,CLR,0.01,WeatherDisplay:10.37,2013-06-27 03:25:00,
2013-06-26 22:30:00,79.5,66.3,29.78,NNE,32,0.0,0.0,64,0.00,CLR,CLR,0.01,WeatherDisplay:10.37,2013-06-27 03:30:00,
2013-06-26 22:35:00,79.3,66.5,29.78,NNE,32,0.0,0.0,65,0.00,CLR,CLR,0.01,WeatherDisplay:10.37,2013-06-27 03:35:00,
2013-06-26 22:40:00,79.1,66.3,29.78,NNE,32,0.0,0.0,65,0.00,CLR,CLR,0.01,WeatherDisplay:10.37,2013-06-27 03:40:00,
2013-06-26 22:45:00,78.9,66.6,29.79,NNE,32,0.0,0.0,66,0.00,CLR,CLR,0.01,WeatherDisplay:10.37,2013-06-27 03:45:00,
2013-06-26 22:50:00,78.7,66.4,29.79,NNE,32,0.0,0.0,66,0.00,CLR,CLR,0.01,WeatherDisplay:10.37,2013-06-27 03:50:00,
2013-06-26 22:55:00,78.5,66.2,29.79,NNE,32,0.0,0.0,66,0.00,CLR,CLR,0.01,WeatherDisplay:10.37,2013-06-27 03:55:00,
2013-06-26 23:00:00,78.3,66.9,29.79,NNE,32,0.0,0.0,68,0.00,CLR,CLR,0.01,WeatherDisplay:10.37,2013-06-27 04:00:00,
2013-06-26 23:01:00,78.3,66.9,29.79,NNE,32,0.0,0.0,68,0.00,CLR,CLR,0.01,WeatherDisplay:10.37,2013-06-27 04:01:00,
2013-06-26 23:02:00,78.2,66.8,29.79,NNE,32,0.0,0.0,68,0.00,CLR,CLR,0.01,WeatherDisplay:10.37,2013-06-27 04:02:00,
2013-06-26 23:06:00,78.0,66.2,29.79,NNE,32,0.0,0.0,67,0.00,CLR,CLR,0.01,WeatherDisplay:10.37,2013-06-27 04:06:00,
2013-06-26 23:07:00,78.0,66.6,29.79,NNE,32,0.0,0.0,68,0.00,CLR,CLR,0.01,WeatherDisplay:10.37,2013-06-27 04:07:00,
2013-06-26 23:12:00,77.8,66.4,29.79,NNE,32,0.0,0.0,68,0.00,CLR,CLR,0.01,WeatherDisplay:10.37,2013-06-27 04:12:00,
2013-06-26 23:14:00,77.8,66.4,29.79,NNE,32,0.0,0.0,68,0.00,CLR,CLR,0.01,WeatherDisplay:10.37,2013-06-27 04:14:00,
2013-06-26 23:19:00,77.6,66.6,29.79,NNE,32,0.0,0.0,69,0.00,CLR,CLR,0.01,WeatherDisplay:10.37,2013-06-27 04:19:00,
2013-06-26 23:25:00,77.5,65.7,29.80,NNE,32,0.0,0.0,67,0.00,CLR,CLR,0.01,WeatherDisplay:10.37,2013-06-27 04:25:00,
2013-06-26 23:30:00,77.4,65.6,29.80,NNE,32,0.0,0.0,67,0.00,CLR,CLR,0.01,WeatherDisplay:10.37,2013-06-27 04:30:00,
2013-06-26 23:35:00,77.4,66.4,29.80,NNE,32,0.0,0.0,69,0.00,CLR,CLR,0.01,WeatherDisplay:10.37,2013-06-27 04:35:00,
2013-06-26 23:40:00,77.2,65.8,29.80,NNE,32,0.0,0.0,68,0.00,CLR,CLR,0.01,WeatherDisplay:10.37,2013-06-27 04:40:00,
2013-06-26 23:45:00,77.1,66.1,29.79,NNE,32,0.0,0.0,69,0.00,CLR,CLR,0.01,WeatherDisplay:10.37,2013-06-27 04:45:00,
2013-06-26 23:50:00,77.0,66.0,29.79,NNE,32,0.0,0.0,69,0.00,CLR,CLR,0.01,WeatherDisplay:10.37,2013-06-27 04:50:00,
2013-06-26 23:55:00,76.9,66.0,29.79,NNE,32,0.0,0.0,69,0.00,CLR,CLR,0.01,WeatherDisplay:10.37,2013-06-27 04:55:00,